Zurück zum Katalog

COSMOS 1904

AktivNavigationPO
NORAD 18709·PAYLOAD·🇷🇺 Russia

Gestartet Dec 23, 1987 von Plesetsk Cosmodrome

Loading…

Nächste Überflüge (nächste 24 Stunden)

TLE

AktuellSource: Space-Track

Epoche: Sep 14, 2026, 06:07 UTC

1 18709U 87106A   26257.25504304  .00000050  00000-0  36205-4 0  9997
2 18709  82.9187   4.3116 0028160 151.5404 235.6565 13.74478534941938

Verfolge COSMOS 1904 in Echtzeit mit AllMySat

Download on the App Store